User: anonymous   Login
Location: Bismarck
(46.7731°N, 100.8200°W)
Time: 09:51:33
(UTC-05:00)
Language:

Landsat 7 - Orbit

View from above orbital plane
View from above orbital plane
View from above satellite
View from above satellite

Ground track
Ground track

The orbit data is extracted from the following two-line orbital elements,

1 25682U 99020A   16179.17299726 -.00000026  00000-0  43168-5 0  9996
2 25682  98.2117 249.4395 0001175  60.2196 299.9112 14.57111555914896
Epoch (UTC): 27 June 2016 04:09:06
Eccentricity: 0.0001175
inclination: 98.2117°
perigee height: 701 km
apogee height: 703 km
right ascension of ascending node: 249.4395°
argument of perigee: 60.2196°
revolutions per day: 14.57111555
mean anomaly at epoch: 299.9112°
orbit number at epoch: 91489

The dashed part of the orbit path shows where the satellite is in the earth's shadow,  

DLR